Location: La Brionne
(46.1728°N, 1.7849°E)
Time: 17:59:37
(UTC+00:00)

USA 215 - Pass Details

Date: 27 October 2021
Orbit: 1099 x 1109 km, 123.0° (Epoch: 20 November)

Event Time Altitude Azimuth Distance (km) Brightness Sun altitude
Exits shadow 20:30:00 34° 345° (NNW) 1,726 4.4 -38.8°
Drops below altitude 10° 20:35:13 10° 293° (WNW) 2,964 6.2 -39.6°
Sets 20:37:54 0° 285° (WNW) 3,923 7.0 -40.0°
